K4AXV-13 Weather Reports


Display with metric or nautical units.
time (UTC)temp
F
wind
direction
speed
MPH
gust
MPH
rain 1hr
in
rain 24hr
in
rain mn
in
humidity
%
barometer
mb
20260507202920 73 359 6.0 5.0 0.03 0.00 0.03
20260507202420 73 349 3.0 6.0 0.03 0.00 0.03
20260507201919 72 340 3.0 9.0 0.03 0.00 0.03
20260507201420 72 318 4.0 3.0 0.03 0.00 0.03
20260507200918 72 232 0.0 0.0 0.03 0.00 0.03
20260507200419 71 281 0.0 0.0 0.00 0.00 0.03
20260507195417 72 352 2.0 0.0 0.00 0.00 0.03
20260507194915 72 347 0.0 0.0 0.00 0.00 0.03
20260507194416 71 347 0.0 0.0 0.00 0.00 0.03
20260507193914 72 283 2.0 2.0 0.00 0.00 0.03
20260507193416 71 322 1.0 3.0 0.00 0.00 0.02
20260507192914 72 347 4.0 0.0 0.00 0.00 0.02
20260507192415 73 342 2.0 2.0 0.00 0.00 0.01
20260507191913 73 312 1.0 2.0 0.00 0.00 0.01
20260507191414 74 263 2.0 0.0 0.00 0.00 0.01
20260507190912 74 314 4.0 3.0 0.00 0.00 0.00
20260507190413 75 283 3.0 3.0 0.00 0.00 0.00
20260507185911 76 290 4.0 4.0 0.00 0.00 0.00
20260507185412 76 300 3.0 2.0 0.00 0.00 0.00
20260507184910 76 318 5.0 4.0 0.00 0.00 0.00
20260507184412 77 338 4.0 6.0 0.00 0.00 0.00
20260507183910 77 231 5.0 1.0 0.00 0.00 0.00
20260507183411 78 266 5.0 7.0 0.00 0.00 0.00
20260507182909 77 304 3.0 5.0 0.00 0.00 0.00
20260507182410 77 356 1.0 0.0 0.00 0.00 0.00
20260507181908 76 295 4.0 3.0 0.00 0.00 0.00
20260507181410 76 273 0.0 1.0 0.00 0.00 0.00
20260507180409 75 256 1.0 0.0 0.00 0.00 0.00
20260507175907 75 262 0.0 0.0 0.00 0.00 0.00
20260507175408 75 309 2.0 2.0 0.00 0.00 0.00
20260507174906 75 305 0.0 1.0 0.00 0.00 0.00
20260507174407 74 323 2.0 1.0 0.00 0.00 0.00
20260507173906 74 346 2.0 2.0 0.00 0.00 0.00
20260507173407 74 325 1.0 0.0 0.00 0.00 0.00
20260507172905 74 280 3.0 0.0 0.00 0.00 0.00
20260507172406 74 198 2.0 0.0 0.00 0.00 0.00
20260507171905 74 238 0.0 0.0 0.00 0.00 0.00
20260507171405 74 256 1.0 2.0 0.00 0.00 0.00
20260507170904 74 278 3.0 2.0 0.00 0.00 0.00
20260507170405 74 295 0.0 0.0 0.00 0.00 0.00
20260507165903 73 208 0.0 0.0 0.00 0.00 0.00
20260507165404 73 359 2.0 1.0 0.00 0.00 0.00
20260507164902 73 307 0.0 0.0 0.00 0.00 0.00
20260507164403 73 305 1.0 0.0 0.00 0.00 0.00
20260507163901 73 238 1.0 2.0 0.00 0.00 0.00
20260507163402 73 249 2.0 1.0 0.00 0.00 0.00
20260507162901 73 149 0.0 0.0 0.00 0.00 0.00
20260507162402 73 155 1.0 3.0 0.00 0.00 0.00
20260507161900 72 101 1.0 0.0 0.00 0.00 0.00
20260507161401 73 14 0.0 0.0 0.00 0.00 0.00
20260507160859 73 48 1.0 2.0 0.00 0.00 0.00
20260507160400 73 277 3.0 6.0 0.00 0.00 0.00
20260507155858 73 207 2.0 0.0 0.00 0.00 0.00
20260507155359 73 308 0.0 0.0 0.00 0.00 0.00
20260507154858 74 7 4.0 5.0 0.00 0.00 0.00
20260507154359 74 278 4.0 2.0 0.00 0.00 0.00
20260507153857 74 359 2.0 5.0 0.00 0.00 0.00
20260507153358 75 117 1.0 1.0 0.00 0.00 0.00
20260507152856 75 295 2.0 1.0 0.00 0.00 0.00
20260507152357 74 260 3.0 2.0 0.00 0.00 0.00
20260507151855 74 259 2.0 1.0 0.00 0.00 0.00
20260507151356 74 329 3.0 3.0 0.00 0.00 0.00
20260507150356 74 249 4.0 3.0 0.00 0.00 0.00
20260507145854 74 297 3.0 3.0 0.00 0.00 0.00
20260507145355 74 328 3.0 1.0 0.00 0.00 0.00
20260507144853 74 352 3.0 2.0 0.00 0.00 0.00
20260507144354 73 329 2.0 7.0 0.00 0.00 0.00
20260507143852 73 277 3.0 3.0 0.00 0.00 0.00
20260507143353 73 333 1.0 2.0 0.00 0.00 0.00
20260507142851 73 231 1.0 1.0 0.00 0.00 0.00
20260507142352 74 356 2.0 3.0 0.00 0.00 0.00
20260507141851 74 346 2.0 1.0 0.00 0.00 0.00
20260507141352 73 349 1.0 1.0 0.00 0.00 0.00
20260507140849 73 305 1.0 1.0 0.00 0.00 0.00
20260507140351 72 318 1.0 2.0 0.00 0.00 0.00
20260507135847 73 271 4.0 2.0 0.00 0.00 0.00
20260507135348 73 315 0.0 0.0 0.00 0.00 0.00
20260507134845 73 315 0.0 0.0 0.00 0.00 0.00
20260507134345 72 315 0.0 0.0 0.00 0.00 0.00
20260507133842 72 315 0.0 0.0 0.00 0.00 0.00
20260507133342 72 315 0.0 0.0 0.00 0.00 0.00
20260507132839 71 315 0.0 0.0 0.00 0.00 0.00
20260507132340 71 315 0.0 0.0 0.00 0.00 0.00
20260507131836 72 315 0.0 0.0 0.00 0.00 0.00
20260507131337 72 315 0.0 0.0 0.00 0.00 0.00
20260507130833 71 315 2.0 0.0 0.00 0.00 0.00
20260507130334 71 69 0.0 0.0 0.00 0.00 0.00
20260507125832 71 138 4.0 6.0 0.00 0.00 0.00
20260507124831 71 232 0.0 0.0 0.00 0.00 0.00
20260507124332 72 232 0.0 0.0 0.00 0.00 0.00
20260507123831 71 346 0.0 0.0 0.00 0.00 0.00
20260507123332 71 346 0.0 0.0 0.00 0.00 0.00
20260507122830 71 0 0.0 0.0 0.00 0.00 0.00
20260507121828 70 318 1.0 0.0 0.00 0.00 0.00
20260507121330 71 276 0.0 0.0 0.00 0.00 0.00
20260507120827 71 10 1.0 2.0 0.00 0.00 0.00
20260507120328 70 339 0.0 0.0 0.00 0.00 0.00
20260507115826 70 226 0.0 0.0 0.00 0.00 0.00
20260507115327 70 326 3.0 1.0 0.00 0.00 0.00
20260507114826 70 236 0.0 0.0 0.00 0.00 0.00
20260507114327 70 257 0.0 0.0 0.00 0.00 0.00
20260507113825 69 13 0.0 0.0 0.00 0.00 0.00
20260507113327 70 13 0.0 0.0 0.00 0.00 0.00
20260507112822 70 13 0.0 0.0 0.00 0.00 0.00
20260507112323 70 13 0.0 0.0 0.00 0.00 0.00
20260507111821 70 13 0.0 0.0 0.00 0.00 0.00
20260507111322 70 13 0.0 0.0 0.00 0.00 0.00
20260507110821 70 13 0.0 0.0 0.00 0.00 0.00
20260507110322 70 13 0.0 0.0 0.00 0.00 0.00
20260507105820 70 13 0.0 0.0 0.00 0.00 0.00
20260507105321 70 13 0.0 0.0 0.00 0.00 0.00
20260507104819 70 13 0.0 0.0 0.00 0.00 0.00
20260507104320 71 13 0.0 0.0 0.00 0.00 0.00
20260507103818 71 308 2.0 0.0 0.00 0.00 0.00
20260507103319 71 11 2.0 1.0 0.00 0.00 0.00
20260507102818 71 308 2.0 2.0 0.00 0.00 0.00
20260507102319 71 246 0.0 3.0 0.00 0.00 0.00
20260507101818 71 252 1.0 1.0 0.00 0.00 0.00
20260507101318 71 281 1.0 1.0 0.00 0.00 0.00
20260507100816 71 27 1.0 0.0 0.00 0.00 0.00
20260507100318 71 328 0.0 2.0 0.00 0.00 0.00
20260507095815 71 214 0.0 0.0 0.00 0.00 0.00
20260507095316 71 322 2.0 3.0 0.00 0.00 0.00
20260507094814 71 343 3.0 1.0 0.00 0.00 0.00
20260507093813 71 224 0.0 0.0 0.00 0.00 0.00
20260507093315 71 340 4.0 2.0 0.00 0.00 0.00
20260507092813 71 332 0.0 3.0 0.00 0.00 0.00
20260507092314 71 294 1.0 1.0 0.00 0.00 0.00
20260507091812 71 287 0.0 0.0 0.00 0.00 0.00
20260507091313 71 228 1.0 1.0 0.00 0.00 0.00
20260507090311 70 4 1.0 2.0 0.00 0.00 0.00
20260507085809 70 211 0.0 0.0 0.00 0.00 0.00
20260507084805 70 34 0.0 1.0 0.00 0.00 0.00
20260507084304 70 321 1.0 0.0 0.00 0.00 0.00
20260507083801 70 228 0.0 0.0 0.00 0.00 0.00
20260507083302 69 228 1.0 0.0 0.00 0.00 0.00
20260507082800 70 134 0.0 0.0 0.00 0.00 0.00
20260507081758 70 80 0.0 0.0 0.00 0.00 0.00
20260507081259 70 80 0.0 0.0 0.00 0.00 0.00
20260507080757 70 80 0.0 0.0 0.00 0.00 0.00
20260507080258 70 80 0.0 0.0 0.00 0.00 0.00
20260507075756 70 80 0.0 0.0 0.00 0.00 0.00
20260507075257 70 80 0.0 0.0 0.00 0.00 0.00
20260507074257 70 80 0.0 0.0 0.00 0.00 0.00
20260507073755 71 80 0.0 0.0 0.00 0.00 0.00
20260507072751 70 80 0.0 0.0 0.00 0.00 0.00
20260507072252 70 80 0.0 0.0 0.00 0.00 0.00
20260507071750 70 80 0.0 0.0 0.00 0.00 0.00
20260507071251 71 80 0.0 0.0 0.00 0.00 0.00
20260507070750 71 80 0.0 0.0 0.00 0.00 0.00
20260507070251 71 80 0.0 0.0 0.00 0.00 0.00
20260507065749 70 80 0.0 0.0 0.00 0.00 0.00
20260507064747 70 129 3.0 2.0 0.00 0.00 0.00
20260507064247 71 6 0.0 0.0 0.00 0.00 0.00
20260507063746 71 6 0.0 0.0 0.00 0.00 0.00
20260507063247 71 6 0.0 0.0 0.00 0.00 0.00
20260507062745 71 6 0.0 0.0 0.00 0.00 0.00
20260507062246 72 6 0.0 0.0 0.00 0.00 0.00
20260507061745 72 6 0.0 0.0 0.00 0.00 0.00
20260507060957 72 6 0.0 0.0 0.00 0.00 0.00
20260507060858 72 6 0.0 0.0 0.00 0.00 0.00
20260507060743 72 6 0.0 0.0 0.00 0.00 0.00
20260507060244 72 6 0.0 0.0 0.00 0.00 0.00
20260507055743 73 6 0.0 0.0 0.00 0.00 0.00
20260507054939 73 6 0.0 0.0 0.00 0.00 0.00
20260507054742 73 6 0.0 0.0 0.00 0.00 0.00
20260507054321 72 6 0.0 0.0 0.00 0.00 0.00
20260507054243 72 6 0.0 0.0 0.00 0.00 0.00
20260507053741 73 6 0.0 0.0 0.00 0.00 0.00
20260507052741 73 354 0.0 2.0 0.00 0.00 0.00
20260507051744 73 273 1.0 0.0 0.00 0.00 0.00
20260507051241 73 298 0.0 1.0 0.00 0.00 0.00
20260507050739 73 338 3.0 5.0 0.00 0.00 0.00
20260507050417 73 288 2.0 2.0 0.00 0.00 0.00
20260507050240 73 288 2.0 2.0 0.00 0.00 0.00
20260507050007 73 357 2.0 2.0 0.00 0.00 0.00
20260507045859 73 357 2.0 2.0 0.00 0.00 0.00
20260507045444 73 357 2.0 2.0 0.00 0.00 0.00
20260507045239 73 357 2.0 2.0 0.00 0.00 0.00
20260507044239 73 235 1.0 0.0 0.00 0.00 0.00
20260507043737 73 354 3.0 3.0 0.00 0.00 0.00
20260507043238 73 17 1.0 5.0 0.00 0.00 0.00
20260507042736 73 281 3.0 2.0 0.00 0.00 0.00
20260507040736 73 297 3.0 5.0 0.00 0.00 0.00
20260507040545 72 305 1.0 1.0 0.00 0.00 0.00
20260507040236 72 305 1.0 1.0 0.00 0.00 0.00
20260507035734 73 219 3.0 2.0 0.00 0.00 0.00
20260507035236 73 18 5.0 1.0 0.00 0.00 0.00
20260507035030 73 17 4.0 2.0 0.00 0.00 0.00
20260507034732 73 17 4.0 2.0 0.00 0.00 0.00
20260507034233 73 253 2.0 1.0 0.00 0.00 0.00
20260507033232 72 236 5.0 0.0 0.00 0.00 0.00
20260507032731 73 0 4.0 2.0 0.00 0.00 0.00
20260507031730 72 260 4.0 0.0 0.00 0.00 0.00
20260507031231 72 322 3.0 1.0 0.00 0.00 0.00
20260507030728 72 238 3.0 3.0 0.00 0.00 0.00
20260507030229 72 347 0.0 2.0 0.00 0.00 0.00
20260507025928 72 238 3.0 4.0 0.00 0.00 0.00
20260507025727 72 238 3.0 4.0 0.00 0.00 0.00
20260507025229 72 115 0.0 0.0 0.00 0.00 0.00
20260507024226 72 295 0.0 2.0 0.00 0.00 0.00
20260507023841 72 325 3.0 1.0 0.00 0.00 0.00
20260507023755 72 264 3.0 0.0 0.00 0.00 0.00
20260507023753 72 325 3.0 1.0 0.00 0.00 0.00
20260507023723 72 264 3.0 0.0 0.00 0.00 0.00
20260507023224 72 325 3.0 1.0 0.00 0.00 0.00
20260507022721 72 259 1.0 4.0 0.00 0.00 0.00
20260507022222 72 238 2.0 5.0 0.00 0.00 0.00
20260507021222 72 308 2.0 2.0 0.00 0.00 0.00
20260507020218 71 15 2.0 2.0 0.00 0.00 0.00
20260507015714 72 250 0.0 3.0 0.00 0.00 0.00
20260507015528 72 314 1.0 3.0 0.00 0.00 0.00
20260507015333 72 314 1.0 3.0 0.00 0.00 0.00
20260507015215 72 314 1.0 3.0 0.00 0.00 0.00
20260507014711 72 345 2.0 2.0 0.00 0.00 0.00
20260507013710 73 39 0.0 2.0 0.00 0.00 0.00
20260507012708 72 285 0.0 0.0 0.00 0.00 0.00
20260507011706 72 339 1.0 0.0 0.00 0.00 0.00
20260507011207 73 349 0.0 1.0 0.00 0.00 0.00
20260507010706 73 322 1.0 0.0 0.00 0.00 0.00
20260507010207 73 354 3.0 2.0 0.00 0.00 0.00
20260507005703 73 238 0.0 1.0 0.00 0.00 0.00
20260507005204 73 274 1.0 3.0 0.00 0.00 0.00
20260507004701 73 25 0.0 0.0 0.00 0.00 0.00
20260507003659 73 256 1.0 2.0 0.00 0.00 0.00
20260507003200 74 352 1.0 1.0 0.00 0.00 0.00
20260507002657 74 314 0.0 0.0 0.00 0.00 0.00
20260507002158 74 307 1.0 0.0 0.00 0.00 0.00
20260507001654 74 277 5.0 9.0 0.00 0.00 0.00
20260507000653 75 349 1.0 3.0 0.00 0.00 0.00
20260507000154 75 333 4.0 1.0 0.00 0.00 0.00
20260506235653 75 357 1.0 0.0 0.00 0.00 0.00
20260506235154 76 325 2.0 3.0 0.00 0.00 0.00
20260506234650 76 301 1.0 0.0 0.00 0.00 0.00
20260506234151 76 329 1.0 2.0 0.00 0.00 0.00
20260506233647 77 96 0.0 0.0 0.00 0.00 0.00
20260506233148 76 307 3.0 6.0 0.00 0.00 0.00
20260506232645 76 248 0.0 0.0 0.00 0.00 0.00
20260506231642 77 318 1.0 0.0 0.00 0.00 0.00
20260506231143 77 3 0.0 0.0 0.00 0.00 0.00
20260506230904 78 350 1.0 4.0 0.00 0.00 0.00
20260506230640 78 350 1.0 4.0 0.00 0.00 0.00
20260506230142 78 21 1.0 0.0 0.00 0.00 0.00
20260506225638 79 307 3.0 1.0 0.00 0.00 0.00
20260506225139 79 108 1.0 4.0 0.00 0.00 0.00
20260506224137 79 325 1.0 0.0 0.00 0.00 0.00
20260506223635 79 359 1.0 0.0 0.00 0.00 0.00
20260506222634 80 304 2.0 0.0 0.00 0.00 0.00
20260506222135 80 325 1.0 0.0 0.00 0.00 0.00
20260506221631 80 323 1.0 4.0 0.00 0.00 0.00
20260506221132 80 352 2.0 0.0 0.00 0.00 0.00
20260506220132 81 70 1.0 1.0 0.00 0.00 0.00
20260506215628 81 340 2.0 0.0 0.00 0.00 0.00
20260506215128 81 326 0.0 1.0 0.00 0.00 0.00
20260506214127 81 75 2.0 2.0 0.00 0.00 0.00
20260506213626 81 115 2.0 1.0 0.00 0.00 0.00
20260506212625 82 315 2.0 0.0 0.00 0.00 0.00
20260506211624 83 10 5.0 2.0 0.00 0.00 0.00
20260506205124 83 311 3.0 6.0 0.00 0.00 0.00
20260506204620 84 301 1.0 4.0 0.00 0.00 0.00
20260506204122 83 114 4.0 5.0 0.00 0.00 0.00
20260506203618 85 124 2.0 0.0 0.00 0.00 0.00